Lid_Strength_Index
2 1 -1 -1 -1 -1 -1 -1 -1 -1 -1 -1 -1 -1 -1 -1 -1 -1 -1 -1 -1 -1 -1 -1 -1 -1 -2 -1 -1 -1 -1 -1 -1 -2 -1 -2 -1 -1 -1 -1 -1 -0 -1
2 0 -1 -1 -1 -1 -1 -1 -1 -1 -1 -1 -1 -1 -1 -1 -1 -1 -1 -1 -1 -1 -1 -1 -2 -2 -1 -1 -1 -1 -2 -1 -1 -1 -1 -1 -0 -1 -1 -1 -1 -1 -1
1 1 0 -1 -2 -1 -1 -1 -1 -1 -1 -1 -1 -1 -1 -1 -1 -1 -1 -1 -1 -1 -1 -1 -1 -1 -1 -1 -1 -1 -2 -1 -0 -0 -1 0 0 -1 -1 -2 -2 -1 -1
1 1 1 -1 -1 -1 -1 -1 -1 -1 -1 -1 -1 -1 -1 -1 -1 -1 -1 -1 -1 -1 -1 -1 -1 -1 -0 -0 -0 -0 0 0 2 3 4 3 3 -1 -2 -1 -1 -1 -1
1 1 1 -1 -1 -1 -1 -1 -1 -1 -1 -1 -1 -1 -1 -1 -1 -1 -1 -1 -1 -1 -2 -1 -1 -1 -0 -0 0 0 0 1 3 5 7 6 5 0 -2 -1 -1 -1 -2
3 2 -0 -1 -1 -1 -1 -1 -1 -1 -1 -2 -2 -1 -2 -2 -2 -2 -2 -2 -1 -2 -1 -1 0 0 0 0 0 1 2 3 5 7 6 4 3 -2 -2 -1 -1 -2 -2
3 2 1 -1 -1 -1 -1 -1 -1 -1 -2 -1 -2 -2 -2 -2 -2 -1 -1 -1 -1 -0 0 1 0 0 0 1 1 2 3 4 8 8 7 5 2 -2 -2 -2 -2 -1 -1
3 3 1 -0 -1 -1 -1 -2 -2 -1 -2 -2 -2 -2 -2 -1 -1 -0 0 0 0 1 1 1 1 1 2 2 2 3 3 5 8 9 8 6 0 -2 -2 -1 -1 -1 -1
3 2 2 1 0 -0 -1 -1 -1 -2 -2 -2 -2 -2 -1 0 0 1 1 1 1 1 1 2 2 3 3 3 4 4 5 6 11 10 8 7 1 -1 -1 -1 -1 -0 -0
4 3 3 3 3 2 2 -0 -1 -1 -2 -2 -2 -1 -0 0 1 1 1 1 1 1 2 3 3 3 4 4 5 6 7 8 11 11 9 6 2 1 -0 -1 -1 -1 -0
5 4 4 4 4 4 4 2 0 -1 -1 -1 0 1 3 7 6 6 4 1 2 2 3 4 5 5 6 6 6 7 9 12 12 11 10 5 3 2 1 1 0 0 0
5 5 5 5 5 5 3 4 3 3 3 4 5 6 9 9 9 8 5 2 3 3 4 5 6 7 10 13 13 11 13 13 13 12 11 6 4 3 2 2 1 1 0
4 4 5 5 6 6 6 6 6 6 6 7 8 9 11 11 10 10 10 11 11 9 12 12 13 13 14 14 14 14 14 14 14 13 11 7 5 4 3 2 2 1 1
6 5 5 5 6 7 7 6 7 7 8 9 9 10 13 12 12 12 13 14 14 14 15 14 14 14 14 14 14 15 15 15 15 14 13 8 6 5 3 3 2 1 1
8 5 5 6 5 6 8 8 8 8 8 10 11 11 12 12 13 13 14 15 15 15 15 15 15 15 15 15 15 15 15 15 15 14 14 9 7 6 4 3 3 2 2
9 7 6 6 6 6 7 8 7 8 10 11 12 12 13 12 13 14 14 15 15 16 16 16 16 16 16 16 16 15 15 15 15 15 14 14 8 7 5 4 4 3 3
9 9 8 6 6 7 7 8 8 9 10 11 11 12 13 13 13 14 14 15 16 16 16 16 16 16 17 16 17 16 16 15 15 15 14 14 13 9 6 5 4 3 3
9 10 10 7 7 7 7 9 9 10 10 11 12 12 13 13 13 14 14 15 16 16 16 17 17 17 17 17 17 17 16 16 15 15 15 15 14 13 10 7 7 5 4
9 10 11 10 9 8 8 9 10 11 11 11 12 13 13 13 14 14 15 15 16 16 17 17 17 18 18 18 17 17 17 16 16 15 16 15 15 15 15 11 10 9 8
10 10 11 11 10 9 9 11 13 13 12 13 13 13 14 13 14 15 15 16 16 17 17 17 18 17 18 18 17 17 17 17 17 17 16 15 16 15 15 15 15 13 9
12 12 12 12 11 11 11 12 13 12 13 14 13 13 14 14 15 15 16 16 17 17 17 18 18 18 18 18 18 18 18 17 17 17 17 17 16 16 16 16 15 15 14
11 12 12 12 12 11 11 11 12 11 14 13 14 15 15 15 15 15 16 16 17 18 18 18 17 18 18 18 19 19 19 19 18 17 17 17 17 17 16 16 16 15 15
13 13 12 12 13 12 12 12 16 16 17 17 17 16 16 15 16 16 16 16 17 17 18 18 18 18 19 19 19 18 20 20 20 18 18 17 18 17 17 16 16 15 15
12 13 13 13 13 12 12 13 13 14 14 14 13 14 15 16 16 16 16 16 17 17 18 18 18 19 18 19 18 18 19 19 20 21 19 18 18 18 18 17 17 16 15
13 14 14 14 14 13 12 13 13 13 13 16 16 15 16 16 16 16 16 17 17 17 18 18 18 19 19 19 19 19 19 20 20 20 21 20 19 18 18 17 17 17 15
14 15 15 15 15 14 13 13 13 13 16 16 17 16 17 17 17 17 17 17 17 17 18 18 18 19 19 19 19 19 19 20 20 20 21 21 21 19 19 18 17 17 15